Location: ??????
(56.0120°N, 39.1740°E)
Time: 09:11:54
(UTC+00:00)

USA 281 - Pass Details

Date: 14 April 2026
Orbit: 1079 x 1080 km, 106.0° (Epoch: 5 January)

Event Time Altitude Azimuth Distance (km) Brightness Sun altitude
Exits shadow 23:41:47 29° 216° (SW) 1,875 3.9 -18.3°
Maximum altitude 23:44:04 37° 254° (WSW) 1,630 3.8 -18.1°
Drops below altitude 10° 23:50:06 10° 320° (NW) 2,933 5.6 -17.6°
Sets 23:52:52 0° 329° (NNW) 3,893 6.4 -17.4°
